If you wish to contribute or participate in the discussions about articles you are invited to join SKYbrary as a registered user

 Actions

Albany Airport (Australia)

From SKYbrary Wiki

YABA
Airport
ICAO: YABA – IATA: ALH
Summary
Name Albany Airport (Australia)
Region Asia and Pacific
Territory Australia AU.gif
Location Drome, Western Australia
Serving Albany
Elevation 71.018 m
233 ft
233 ft71.018 m
Type medium airport
Coordinates 34° 56' 35.88" S, 117° 48' 32.40" E
Runways
Designator Length Width Surface ROPS
5/23 1096 m3,595.801 ft
30 m98.425 ft
GVL /
14/32 1800 m5,905.512 ft
30 m98.425 ft
ASP /


METAR
Observation YABA 231100Z AUTO 20006KT 9999 // NCD 21/15 Q1016
Station Albany Aerodrome
Date/Time 23 February 2019 11:00:00
Wind direction 200°
Wind speed 06 kts
Lowest cloud amount no clouds detected
Temperature 21°C
Dew point 15°C
Humidity 68%
QNH 1016 hPa
Weather condition n/a

Maps

Terrain

Loading map...

Airport Layout

Loading map...


Accidents & Serious Incidents at or in vicinity of YABA

None on SKYbrary